When you browse on this site, cookies collect data to enhance your experience and personalize the content and advertising you see.
Visit our Privacy Policy to learn more. By continuing to use the site, you agree to this use of cookies and data.
  • In Hungary
  • List of Countries
  • For 7 days
  • Water Temperature
  • Satellite Maps
  • Weather Map
  • News
  • Weather Widgets
  • user-avatar
    Login

    Hourly Weather Peschanyy

    Today, 20 November, Tuesday

    Time Temperature Precipitation Wind Pressure Humidity
    00:00 -2°C° 0.1 mm 3 mps 761 mmHg 90%
    01:00 -4°C° 0 mm 3 mps 761 mmHg 90%
    02:00 -3°C° 0 mm 2 mps 761 mmHg 91%
    03:00 -4°C° 0 mm 2 mps 761 mmHg 91%
    04:00 -4°C° 0 mm 2 mps 761 mmHg 92%
    05:00 -5°C° 0 mm 2 mps 760 mmHg 92%
    06:00 -5°C° 0 mm 2 mps 760 mmHg 93%
    07:00 -5°C° 0 mm 2 mps 760 mmHg 91%
    08:00 -4°C° 0 mm 2 mps 760 mmHg 90%
    09:00 -4°C° 0 mm 2 mps 760 mmHg 89%
    10:00 -4°C° 0 mm 2 mps 759 mmHg 86%
    11:00 -3°C° 0 mm 2 mps 759 mmHg 83%
    12:00 -3°C° 0 mm 2 mps 759 mmHg 80%
    13:00 -3°C° 0 mm 2 mps 758 mmHg 81%
    14:00 -3°C° 0 mm 2 mps 758 mmHg 81%
    15:00 -3°C° 0 mm 2 mps 757 mmHg 81%
    16:00 -4°C° 0 mm 3 mps 757 mmHg 82%
    17:00 -4°C° 0 mm 3 mps 756 mmHg 83%
    18:00 -5°C° 0 mm 3 mps 756 mmHg 84%
    19:00 -5°C° 0.1 mm 3 mps 755 mmHg 84%
    20:00 -5°C° 0.1 mm 4 mps 754 mmHg 85%
    21:00 -5°C° 0.1 mm 4 mps 754 mmHg 86%
    22:00 -5°C° 0 mm 4 mps 753 mmHg 85%
    23:00 -5°C° 0 mm 4 mps 752 mmHg 84%

    Tomorrow, 21 November, Wednesday

    Time Temperature Precipitation Wind Pressure Humidity
    00:00 -5°C° 0 mm 4 mps 751 mmHg 83%
    01:00 -5°C° 0 mm 4 mps 751 mmHg 83%
    02:00 -5°C° 0 mm 4 mps 750 mmHg 83%
    03:00 -5°C° 0 mm 4 mps 750 mmHg 83%
    04:00 -5°C° 0.2 mm 4 mps 749 mmHg 84%
    05:00 -5°C° 0.2 mm 5 mps 749 mmHg 85%
    06:00 -5°C° 0.2 mm 5 mps 748 mmHg 87%
    07:00 -5°C° 0.1 mm 5 mps 748 mmHg 85%
    08:00 -4°C° 0.1 mm 5 mps 748 mmHg 83%
    09:00 -4°C° 0.1 mm 6 mps 747 mmHg 82%
    10:00 -4°C° 0 mm 6 mps 747 mmHg 76%
    11:00 -4°C° 0 mm 7 mps 747 mmHg 70%
    12:00 -4°C° 0 mm 7 mps 747 mmHg 64%
    13:00 -6°C° 0 mm 7 mps 748 mmHg 65%
    14:00 -7°C° 0 mm 7 mps 748 mmHg 67%
    15:00 -6°C° 0 mm 6 mps 748 mmHg 68%
    16:00 -6°C° 0 mm 6 mps 749 mmHg 69%
    17:00 -8°C° 0 mm 6 mps 749 mmHg 70%
    18:00 -7°C° 0 mm 5 mps 749 mmHg 71%
    19:00 -7°C° 0 mm 5 mps 749 mmHg 72%
    20:00 -8°C° 0 mm 5 mps 749 mmHg 74%
    21:00 -8°C° 0 mm 5 mps 749 mmHg 75%
    22:00 -8°C° 0 mm 5 mps 749 mmHg 77%
    23:00 -8°C° 0 mm 5 mps 749 mmHg 80%

    Day after tomorrow, 22 November, Thursday

    Time Temperature Precipitation Wind Pressure Humidity
    00:00 -8°C° 0 mm 4 mps 749 mmHg 82%
    01:00 -9°C° 0 mm 4 mps 749 mmHg 84%
    02:00 -9°C° 0 mm 4 mps 749 mmHg 86%
    03:00 -9°C° 0 mm 4 mps 748 mmHg 88%
    04:00 -9°C° 0 mm 4 mps 748 mmHg 88%
    05:00 -9°C° 0 mm 4 mps 747 mmHg 89%
    06:00 -9°C° 0 mm 4 mps 747 mmHg 89%
    07:00 -8°C° 0.1 mm 4 mps 746 mmHg 88%
    08:00 -7°C° 0.1 mm 5 mps 745 mmHg 87%
    09:00 -7°C° 0.1 mm 5 mps 744 mmHg 86%
    10:00 -6°C° 0.5 mm 6 mps 743 mmHg 85%
    11:00 -6°C° 0.5 mm 6 mps 742 mmHg 85%
    12:00 -6°C° 0.5 mm 7 mps 741 mmHg 85%
    13:00 -6°C° 0.4 mm 7 mps 741 mmHg 84%
    14:00 -6°C° 0.4 mm 7 mps 740 mmHg 83%
    15:00 -4°C° 0.4 mm 7 mps 740 mmHg 83%
    16:00 -5°C° 0.3 mm 6 mps 739 mmHg 83%
    17:00 -5°C° 0.3 mm 5 mps 739 mmHg 83%
    18:00 -4°C° 0.3 mm 4 mps 739 mmHg 83%
    19:00 -5°C° 0.1 mm 4 mps 739 mmHg 85%
    20:00 -5°C° 0.1 mm 3 mps 739 mmHg 87%
    21:00 -6°C° 0.1 mm 3 mps 739 mmHg 90%
    22:00 -8°C° 0 mm 4 mps 739 mmHg 86%
    23:00 -8°C° 0 mm 4 mps 740 mmHg 82%

    23 November, Friday

    Time Temperature Precipitation Wind Pressure Humidity
    00:00 -10°C° 0 mm 5 mps 741 mmHg 78%
    01:00 -11°C° 0 mm 5 mps 743 mmHg 78%
    02:00 -11°C° 0 mm 5 mps 744 mmHg 79%
    03:00 -12°C° 0 mm 5 mps 745 mmHg 80%
    04:00 -12°C° 0 mm 5 mps 746 mmHg 82%
    05:00 -11°C° 0 mm 4 mps 747 mmHg 84%
    06:00 -11°C° 0 mm 4 mps 748 mmHg 87%
    07:00 -12°C° 0 mm 5 mps 749 mmHg 85%
    08:00 -11°C° 0 mm 5 mps 750 mmHg 82%
    09:00 -10°C° 0 mm 5 mps 751 mmHg 80%
    10:00 -10°C° 0 mm 5 mps 751 mmHg 79%
    11:00 -10°C° 0 mm 5 mps 752 mmHg 77%
    12:00 -10°C° 0 mm 5 mps 753 mmHg 75%
    13:00 -10°C° 0 mm 5 mps 753 mmHg 76%
    14:00 -9°C° 0 mm 4 mps 754 mmHg 77%
    15:00 -10°C° 0 mm 4 mps 754 mmHg 78%
    16:00 -10°C° 0 mm 4 mps 755 mmHg 80%
    17:00 -11°C° 0 mm 4 mps 755 mmHg 82%
    18:00 -11°C° 0 mm 4 mps 755 mmHg 85%
    19:00 -11°C° 0 mm 4 mps 755 mmHg 86%
    20:00 -11°C° 0 mm 4 mps 755 mmHg 87%
    21:00 -12°C° 0 mm 4 mps 755 mmHg 88%
    22:00 -11°C° 0 mm 4 mps 755 mmHg 88%
    23:00 -11°C° 0 mm 4 mps 754 mmHg 87%

    24 November, Saturday

    Time Temperature Precipitation Wind Pressure Humidity
    00:00 -11°C° 0 mm 4 mps 754 mmHg 87%
    01:00 -11°C° 0 mm 4 mps 753 mmHg 88%
    02:00 -12°C° 0 mm 5 mps 753 mmHg 88%
    03:00 -11°C° 0 mm 5 mps 753 mmHg 89%
    04:00 -11°C° 0 mm 5 mps 752 mmHg 89%
    05:00 -11°C° 0 mm 5 mps 751 mmHg 88%
    06:00 -11°C° 0 mm 5 mps 751 mmHg 87%
    07:00 -10°C° 0.1 mm 6 mps 750 mmHg 86%
    08:00 -9°C° 0.1 mm 6 mps 749 mmHg 85%
    09:00 -9°C° 0.1 mm 6 mps 748 mmHg 83%
    10:00 -8°C° 0.1 mm 6 mps 748 mmHg 82%
    11:00 -6°C° 0.1 mm 6 mps 747 mmHg 81%
    12:00 -6°C° 0.1 mm 7 mps 746 mmHg 79%
    13:00 -6°C° 0.1 mm 7 mps 746 mmHg 79%
    14:00 -6°C° 0.1 mm 7 mps 746 mmHg 79%
    15:00 -6°C° 0.1 mm 7 mps 745 mmHg 79%
    16:00 -6°C° 0.1 mm 7 mps 745 mmHg 80%
    17:00 -4°C° 0.1 mm 7 mps 745 mmHg 81%
    18:00 -4°C° 0.1 mm 7 mps 746 mmHg 83%
    19:00 -4°C° 0.2 mm 7 mps 746 mmHg 83%
    20:00 -4°C° 0.2 mm 6 mps 746 mmHg 83%
    21:00 -4°C° 0.2 mm 5 mps 746 mmHg 84%
    22:00 -5°C° 0 mm 5 mps 747 mmHg 85%
    23:00 -5°C° 0 mm 5 mps 747 mmHg 86%

    25 November, Sunday

    Time Temperature Precipitation Wind Pressure Humidity
    00:00 -6°C° 0 mm 5 mps 748 mmHg 87%
    01:00 -6°C° 0 mm 5 mps 748 mmHg 88%
    02:00 -7°C° 0 mm 4 mps 749 mmHg 89%
    03:00 -7°C° 0 mm 4 mps 749 mmHg 89%
    04:00 -7°C° 0 mm 4 mps 749 mmHg 90%
    05:00 -8°C° 0 mm 4 mps 749 mmHg 91%
    06:00 -7°C° 0 mm 3 mps 750 mmHg 93%
    07:00 -7°C° 0 mm 3 mps 750 mmHg 93%
    08:00 -7°C° 0 mm 3 mps 750 mmHg 93%
    09:00 -8°C° 0 mm 4 mps 750 mmHg 93%
    10:00 -7°C° 0 mm 4 mps 751 mmHg 92%
    11:00 -7°C° 0 mm 4 mps 751 mmHg 90%
    12:00 -5°C° 0 mm 4 mps 751 mmHg 88%
    13:00 -5°C° 0 mm 4 mps 751 mmHg 88%
    14:00 -5°C° 0 mm 3 mps 751 mmHg 87%
    15:00 -5°C° 0 mm 3 mps 751 mmHg 87%
    16:00 -5°C° 0 mm 3 mps 751 mmHg 87%
    17:00 -5°C° 0 mm 3 mps 751 mmHg 88%
    18:00 -5°C° 0 mm 3 mps 751 mmHg 89%
    19:00 -6°C° 0 mm 3 mps 751 mmHg 89%
    20:00 -5°C° 0 mm 2 mps 751 mmHg 90%
    21:00 -5°C° 0 mm 2 mps 751 mmHg 90%
    22:00 -6°C° 0 mm 2 mps 752 mmHg 91%
    23:00 -6°C° 0 mm 2 mps 752 mmHg 93%
    Show more